User: anonymous   Login
Location: Unspecified
(0.0000°N, 0.0000°E)
Time: 03:34:29
(UTC+00:00)
Language:

ERTS 1 - Orbit

View from above orbital plane
View from above orbital plane
View from above satellite
View from above satellite

Ground track
Ground track

The orbit data is extracted from the following two-line orbital elements,

1 06126U 72058A   18023.46342032 -.00000121  00000-0 -54722-4 0  9995
2 06126  99.0967 339.3348 0007937 347.4703  12.6261 13.97529251319795
Epoch (UTC): 23 January 2018 11:07:19
Eccentricity: 0.0007937
inclination: 99.0967°
perigee height: 896 km
apogee height: 908 km
right ascension of ascending node: 339.3348°
argument of perigee: 347.4703°
revolutions per day: 13.97529251
mean anomaly at epoch: 12.6261°
orbit number at epoch: 31979

The dashed part of the orbit path shows where the satellite is in the earth's shadow,  

DLR